CZ-4 DEB

Satellite information

Favourite Embed

Satellite Type and Status

DEBRISIN ORBIT

Key statistics

Satellite CZ-4 DEB at a glance.

Uptime

12886

Days in orbit

Revolutions

≈ 14.1

Per day

Orbit

SSO

Sun Synchronous Orbit

Inclination

98.8

Latest

Satellite identification and parameters

Extended collection of information and parameters for CZ-4 DEB.

Object identification

Identified? True

Debris? True

Object name: CZ-4 DEB

International designator: 1990-081T

Object number (NORAD): 20855

Object ID (CCSDS): 20855

Country: PEOPLES REPUBLIC OF CHINA (PRC)

Current information (Y/N): Y

RCS size: LARGE

Orbital parameters

Period: 102.19 minutes

Inclination: 98.8099 deg

SMA: 7240.452 km

Apoapsis: 879.073 km

Periapsis: 845.561 km

RAAN: 327.8547 deg

Eccentricy: 0.00231424

Argument of periapsis: 301.2478 deg

Mean anomaly: 167.2624 deg

Mean motion: 14.09140416 rev/day

Mean motion (dot): 0.00000106 rev/day2

B* drag term: 0.000086129262 1/REarth

Two-line elements (TLE)

Creation date: Dec. 14, 2025, 3:07 a.m.

Reference frame: TEME

Reference center: EARTH

Epoch: Dec. 13, 2025, 1:30 p.m. UTC

TLE line 0: 0 CZ-4 DEB

TLE line 1: 1 20855U 90081T 25347.56261936 .00000106 00000-0 86129-4 0 9994

TLE line 2: 2 20855 98.8099 327.8547 0023142 301.2478 167.2624 14.09140416813165

Live tracking on map

Real-time ground track for satellite CZ-4 DEB.

In-orbit conjunctions

A list of the most updated potential collisions computed for object CZ-4 DEB.

Target Orbit TCA Probability of collision Miss distance Type
FENGYUN 1C DEB SSO 2025-10-05 22:20:42 0.0001465108 348.0 (m) DEBRIS
NOAA 16 DEB SSO 2024-09-27 16:11:36 0.0002008813 643.0 (m) DEBRIS
COSMOS 1275 DEB LEO 2024-08-07 00:18:10 0.0001613238 212.0 (m) DEBRIS

Associated space launch

Chinese polar orbiting meteorological satellite

CZ-4 DEB was lifted into orbit during the mission ‘Long March 4A | Feng Yun 1B’, on board a Long March 4A space rocket.

The launch took place on Sept. 3, 1990, 12:53 a.m. from Launch Complex 7.

For more information about the launch, click the button.

Launch to space Long March 4A | Feng Yun 1B
Long March 4A | Feng Yun 1B

Agency: N/A

Status: Launch Successful

Launch date: Sept. 3, 1990, 12:53 a.m. UTC

Rocket: Long March 4A

Launch pad: Launch Complex 7

Location: Taiyuan Satellite Launch Center, People's Republic of China

...

Latest news about this satellite

There are no fresh news available about this satellite. Check back as we update our databases every day.


Newsletter sign-up

Weekly statistics, charts and insights to help you stay on top of the space industry.